Date String (YYYY-MM-DD hh:mm:ss) UTC,Instrument flags,Ambient pressure (hPa),Sample flow (lpm),Bypass flow (lpm),Sample temperature (°C),Ambient temperature (°C),ASC tube jacket temperature (°C),LED temperature (°C),Box temperature (°C),Sample RH (%),Span deviation,Mass concentration (μg/m³),Mass concentration (μg/m³),Mass concentration (μg/m³)
DateTimeUTC,F1_M11,P_M11,Q1_M11,Q2_M11,T1_M11,T2_M11,T3_M11,T4_M11,T5_M11,U1_M11,ZSPAN_M11,X0_M11,X2_M11,X1_M11
2023-05-20 09:00:00,,0837.6,5.00,0.00,28.3,26.7,00.0,36.7,29.9,26.4,0002.5,0135.66,0097.63,0092.28
2023-05-20 09:01:00,,0837.5,5.00,0.00,28.4,26.7,00.0,36.7,30.0,26.4,0002.6,0136.03,0097.86,0092.55
2023-05-20 09:02:00,,0837.5,5.01,0.00,28.4,26.7,00.0,36.7,30.0,26.3,0002.7,0135.83,0098.02,0092.72
2023-05-20 09:03:00,,0837.5,4.99,0.00,28.4,26.7,00.0,36.7,30.0,26.3,0002.8,0135.28,0098.15,0092.90
2023-05-20 09:04:00,,0837.5,5.00,0.00,28.4,26.7,00.0,36.7,30.0,26.3,0002.8,0135.81,0098.48,0093.13
2023-05-20 09:05:00,,0837.5,4.99,0.00,28.4,26.7,00.0,36.7,30.0,26.3,0002.7,0137.42,0099.10,0093.64
2023-05-20 09:06:00,,0837.5,5.00,0.00,28.4,26.7,00.0,36.7,30.0,26.2,0002.8,0138.38,0099.49,0094.01
2023-05-20 09:07:00,,0837.5,5.00,0.00,28.4,26.7,00.0,36.7,30.0,26.2,0002.9,0138.86,0099.72,0094.18
2023-05-20 09:08:00,,0837.5,5.01,0.00,28.4,26.7,00.0,36.7,30.0,26.3,0002.9,0138.93,0099.69,0094.16
2023-05-20 09:09:00,,0837.4,5.00,0.00,28.4,26.7,00.0,36.7,30.0,26.3,0002.8,0139.26,0099.62,0094.09
2023-05-20 09:10:00,,0837.4,5.00,0.00,28.4,26.7,00.0,36.7,30.0,26.3,0002.8,0139.16,0099.68,0094.09
2023-05-20 09:11:00,,0837.4,5.01,0.00,28.4,26.7,00.0,36.7,30.0,26.2,0002.8,0138.63,0099.61,0094.06
2023-05-20 09:12:00,,0837.4,5.00,0.00,28.4,26.8,00.0,36.7,30.0,26.2,0002.8,0138.36,0099.51,0093.95
2023-05-20 09:13:00,,0837.4,4.99,0.00,28.4,26.8,00.0,36.7,30.0,26.2,0002.8,0138.43,0099.45,0093.84
2023-05-20 09:14:00,,0837.4,4.99,0.00,28.4,26.8,00.0,36.7,30.0,26.2,0002.8,0138.39,0099.31,0093.64
2023-05-20 09:15:00,,0837.4,5.00,0.00,28.4,26.8,00.0,36.7,30.0,26.2,0002.8,0138.35,0099.16,0093.47
2023-05-20 09:16:00,,0837.4,5.00,0.00,28.4,26.8,00.0,36.7,30.0,26.2,0002.9,0137.39,0098.86,0093.23
2023-05-20 09:17:00,,0837.4,5.00,0.00,28.4,26.8,00.0,36.7,30.0,26.2,0002.9,0136.74,0098.69,0093.04
2023-05-20 09:18:00,,0837.4,5.00,0.00,28.4,26.8,00.0,36.7,30.0,26.2,0002.9,0136.20,0098.38,0092.85
2023-05-20 09:19:00,,0837.5,5.01,0.00,28.4,26.8,00.0,36.7,30.0,26.2,0002.9,0135.84,0098.13,0092.61
2023-05-20 09:20:00,,0837.5,5.00,0.00,28.4,26.8,00.0,36.7,30.0,26.2,0002.9,0135.27,0098.09,0092.60
2023-05-20 09:21:00,,0837.5,5.00,0.00,28.4,26.7,00.0,36.7,30.0,26.2,0002.9,0134.66,0097.92,0092.48
2023-05-20 09:22:00,,0837.5,4.99,0.00,28.4,26.7,00.0,36.7,30.0,26.2,0002.8,0134.43,0097.73,0092.26
2023-05-20 09:23:00,,0837.5,5.01,0.00,28.4,26.7,00.0,36.7,30.0,26.2,0002.8,0134.22,0097.53,0092.02
2023-05-20 09:24:00,,0837.5,5.02,0.00,28.4,26.7,00.0,36.7,30.0,26.2,0002.7,0133.69,0097.33,0091.83
2023-05-20 09:25:00,,0837.5,5.01,0.00,28.4,26.7,00.0,36.7,30.0,26.2,0002.7,0133.48,0097.27,0091.78
2023-05-20 09:26:00,,0837.5,4.99,0.00,28.4,26.7,00.0,36.7,30.0,26.2,0002.7,0133.32,0097.15,0091.68
2023-05-20 09:27:00,,0837.5,5.00,0.00,28.4,26.7,00.0,36.7,30.0,26.2,0002.7,0134.16,0097.05,0091.63
2023-05-20 09:28:00,,0837.5,5.00,0.00,28.4,26.7,00.0,36.7,30.0,26.2,0002.6,0135.36,0096.91,0091.50
2023-05-20 09:29:00,,0837.5,5.01,0.00,28.4,26.7,00.0,36.7,30.0,26.2,0002.6,0135.36,0096.77,0091.38
2023-05-20 09:30:00,,0837.5,5.01,0.00,28.4,26.8,00.0,36.7,30.0,26.2,0002.6,0135.39,0096.79,0091.38
2023-05-20 09:31:00,,0837.5,5.01,0.00,28.4,26.8,00.0,36.7,30.0,26.2,0002.6,0135.52,0096.85,0091.39
2023-05-20 09:32:00,,0837.5,5.00,0.00,28.4,26.8,00.0,36.7,30.0,26.2,0002.6,0135.42,0096.78,0091.34
2023-05-20 09:33:00,,0837.5,5.00,0.00,28.4,26.8,00.0,36.7,30.0,26.2,0002.7,0135.26,0096.75,0091.38
2023-05-20 09:34:00,,0837.5,5.00,0.00,28.4,26.8,00.0,36.7,30.0,27.1,0002.7,0134.03,0096.13,0090.93
2023-05-20 09:35:00,,0837.5,4.99,0.00,28.4,26.8,00.0,36.7,30.0,27.8,0002.7,0132.28,0094.90,0089.79
2023-05-20 09:36:00,,0837.5,4.99,0.00,28.4,26.8,00.0,36.7,30.0,27.9,0002.6,0130.76,0093.83,0088.79
2023-05-20 09:37:00,,0837.5,5.00,0.00,28.4,26.8,00.0,36.7,30.0,28.0,0002.6,0128.92,0092.74,0087.84
2023-05-20 09:38:00,,0837.5,5.00,0.00,28.4,26.8,00.0,36.7,30.0,28.2,0002.6,0126.62,0091.76,0086.96
2023-05-20 09:39:00,,0837.5,5.00,0.00,28.4,26.8,00.0,36.7,30.0,28.3,0002.5,0123.75,0090.91,0086.16
2023-05-20 09:40:00,,0837.5,5.00,0.00,28.4,26.8,00.0,36.7,30.0,28.3,0002.5,0122.43,0090.28,0085.49
2023-05-20 09:41:00,,0837.4,5.00,0.00,28.4,26.8,00.0,36.7,30.0,28.2,0002.4,0121.32,0089.62,0084.91
2023-05-20 09:42:00,,0837.4,5.00,0.00,28.4,26.8,00.0,36.7,30.0,28.2,0002.3,0120.50,0088.84,0084.25
2023-05-20 09:43:00,,0837.4,5.01,0.00,28.4,26.8,00.0,36.8,30.0,28.2,0002.2,0119.95,0088.16,0083.60
2023-05-20 09:44:00,,0837.4,5.00,0.00,28.4,26.8,00.0,36.8,30.0,28.1,0002.2,0119.57,0087.51,0082.89
2023-05-20 09:45:00,,0837.4,5.00,0.00,28.4,26.8,00.0,36.8,30.0,28.0,0002.2,0119.31,0087.20,0082.50
2023-05-20 09:46:00,,0837.4,5.01,0.00,28.4,26.8,00.0,36.8,30.0,27.7,0002.3,0119.94,0087.62,0082.92
2023-05-20 09:47:00,,0837.4,5.00,0.00,28.4,26.8,00.0,36.8,30.0,27.2,0002.4,0119.75,0087.36,0082.65
2023-05-20 09:48:00,,0837.4,4.99,0.00,28.4,26.8,00.0,36.8,30.0,27.0,0002.4,0119.20,0087.01,0082.24
2023-05-20 09:49:00,,0837.4,4.98,0.00,28.4,26.8,00.0,36.8,30.0,27.1,0002.4,0118.50,0086.55,0081.75
2023-05-20 09:50:00,,0837.4,5.00,0.00,28.4,26.8,00.0,36.8,30.0,27.0,0002.4,0117.42,0085.89,0081.18
2023-05-20 09:51:00,,0837.3,5.00,0.00,28.4,26.8,00.0,36.8,30.0,27.0,0002.4,0116.58,0084.98,0080.42
2023-05-20 09:52:00,,0837.3,5.01,0.00,28.4,26.8,00.0,36.8,30.0,27.0,0002.5,0115.65,0083.98,0079.43
2023-05-20 09:53:00,,0837.2,5.00,0.00,28.4,26.8,00.0,36.8,30.0,27.1,0002.6,0114.13,0083.05,0078.50
2023-05-20 09:54:00,,0837.3,5.00,0.00,28.4,26.8,00.0,36.7,30.0,26.9,0002.7,0112.27,0081.74,0077.32
2023-05-20 09:55:00,,0837.3,4.99,0.00,28.4,26.8,00.0,36.8,30.0,26.8,0002.7,0109.57,0080.31,0076.07
2023-05-20 09:56:00,,0837.2,5.00,0.00,28.4,26.8,00.0,36.8,30.0,26.7,0002.7,0107.16,0078.85,0074.75
2023-05-20 09:57:00,,0837.2,5.01,0.00,28.4,26.8,00.0,36.8,30.0,26.6,0002.7,0105.28,0077.53,0073.50
2023-05-20 09:58:00,,0837.2,5.00,0.00,28.4,26.8,00.0,36.8,30.0,26.5,0002.7,0103.91,0076.65,0072.63
2023-05-20 09:59:00,,0837.2,5.00,0.00,28.4,26.8,00.0,36.8,30.0,26.5,0002.7,0102.59,0075.77,0071.88
